Weather reports worldwide

Advertisment
Dunstaffnage, United Kingdom (99006): temperature & dewpoint: 17.01.2019 02:00:00 - 23.01.2019 02:00:00 (GMT)Dunstaffnage, United Kingdom (99006): temperature -20cm: 17.01.2019 02:00:00 - 23.01.2019 02:00:00 (GMT)Dunstaffnage, United Kingdom (99006): wind speed & gusts: 17.01.2019 02:00:00 - 23.01.2019 02:00:00 (GMT)Dunstaffnage, United Kingdom (99006): wind direction: 17.01.2019 02:00:00 - 23.01.2019 02:00:00 (GMT)Dunstaffnage, United Kingdom (99006): precipitation: 17.01.2019 02:00:00 - 23.01.2019 02:00:00 (GMT)
Date & Time tt [°C] td [°C] tt -20cm [°C] ff [km/h] ff [kn] fx [km/h] fx [kn] dd rr [mm]
23.01.2019 02:00:00 - - - - - - - - 0,0
23.01.2019 01:00:00 -0,2 -0,6 - 0 0 - - N 0,0
23.01.2019 00:00:00 0,7 0,3 - 0 0 - - N 0,0
22.01.2019 23:00:00 0,5 0,1 - 4 2 - - SSW 0,0
22.01.2019 22:00:00 0,2 -0,2 - 0 0 - - N 0,0
22.01.2019 21:00:00 0,3 -0,2 - 4 2 - - E 0,0
22.01.2019 20:00:00 0,7 0,2 - 2 1 - - E 0,0
22.01.2019 19:00:00 0,6 0,0 - 8 4 - - SE 0,0
22.01.2019 18:00:00 0,4 -0,1 - 8 4 - - ESE 0,0
22.01.2019 17:00:00 0,8 0,3 - 9 5 - - E 0,0
22.01.2019 16:00:00 0,9 0,3 - 8 4 - - SE 0,0
22.01.2019 15:00:00 1,0 0,4 - 9 5 - - SSW 0,0
22.01.2019 14:00:00 0,8 0,3 - 8 4 - - SW 0,2
22.01.2019 13:00:00 1,7 1,4 - 5 3 - - SW 1,4
22.01.2019 12:00:00 1,1 0,7 - 9 5 - - SW 1,2
22.01.2019 11:00:00 0,7 0,2 - 9 5 - - WSW 0,8
22.01.2019 10:00:00 1,1 0,7 - 4 2 - - E 0,2
22.01.2019 09:00:00 0,8 0,3 4,4 2 1 - - NNW 0,4
22.01.2019 08:00:00 1,1 0,5 - 2 1 - - SW 0,8
22.01.2019 07:00:00 1,1 0,3 - 4 2 - - ENE 1,2
22.01.2019 06:00:00 2,0 0,9 - 4 2 - - WSW 0,0
22.01.2019 05:00:00 0,9 0,0 - 4 2 - - WSW 0,0
22.01.2019 04:00:00 1,2 -0,6 - 5 3 - - SSW 0,0
22.01.2019 03:00:00 1,0 -0,3 - 5 3 - - SW 0,0
22.01.2019 02:00:00 3,2 1,1 - 13 7 - - W 0,2
22.01.2019 01:00:00 3,8 2,4 - 18 10 - - W 0,2
22.01.2019 00:00:00 3,6 1,1 - 8 4 - - WNW 0,0
21.01.2019 23:00:00 3,3 1,2 - 16 9 - - W 0,0
21.01.2019 22:00:00 3,0 1,9 - 8 4 - - SSE 0,0
21.01.2019 21:00:00 3,4 2,2 - 9 5 - - SSE 0,0
21.01.2019 20:00:00 3,8 1,8 - 15 8 46 25 W 0,6
21.01.2019 19:00:00 4,6 3,6 - 16 9 - - SSW 1,8
21.01.2019 18:00:00 3,3 2,1 - 22 12 - - SSE 3,8
21.01.2019 17:00:00 3,6 2,1 - 21 11 - - S 2,6
21.01.2019 16:00:00 4,3 2,5 - 22 12 - - S 1,0
21.01.2019 15:00:00 4,6 2,5 - 22 12 - - S 0,4
21.01.2019 14:00:00 4,4 2,1 - 26 14 48 26 S 0,4
21.01.2019 13:00:00 5,6 0,7 - 28 15 50 27 S 0,0
21.01.2019 12:00:00 5,6 1,2 - 18 10 - - S 0,0
21.01.2019 11:00:00 5,4 1,6 - 13 7 - - SSE 0,0
21.01.2019 10:00:00 5,1 1,6 - 11 6 - - SSE 0,0
21.01.2019 09:00:00 5,3 1,9 4,7 15 8 - - SSE 0,0
21.01.2019 08:00:00 5,0 2,0 - 11 6 - - SSE 0,0
21.01.2019 07:00:00 5,0 1,7 - 16 9 - - S 0,0
21.01.2019 06:00:00 5,1 2,0 - 15 8 - - S 0,0
21.01.2019 05:00:00 4,6 1,9 - 15 8 - - SSE 0,0
21.01.2019 04:00:00 2,3 1,0 - 9 5 - - ENE 0,0
21.01.2019 03:00:00 2,5 1,2 - 4 2 - - SE 0,0
21.01.2019 02:00:00 2,6 1,3 - 13 7 - - ESE 0,0
21.01.2019 01:00:00 2,7 1,4 - 8 4 - - NE 0,0
21.01.2019 00:00:00 2,2 1,0 - 4 2 - - ENE 0,0
20.01.2019 23:00:00 3,1 1,0 - 2 1 - - ENE 0,0
20.01.2019 22:00:00 3,7 1,8 - 5 3 - - E 0,0
20.01.2019 21:00:00 3,5 1,5 - 2 1 - - SSW 0,0
20.01.2019 20:00:00 3,0 1,3 - 2 1 - - SW 0,0
20.01.2019 19:00:00 4,0 1,3 - 5 3 - - SW 0,0
20.01.2019 18:00:00 5,0 1,4 - 13 7 - - NNW 0,0
20.01.2019 17:00:00 5,0 1,5 - 8 4 - - W 0,2
20.01.2019 16:00:00 6,1 1,1 - 16 9 - - WNW 0,0
20.01.2019 15:00:00 6,7 0,6 - 21 11 - - NW 0,0
20.01.2019 14:00:00 6,8 2,1 - 15 8 52 28 WNW 0,0
20.01.2019 13:00:00 6,6 1,7 - 8 4 - - NNW 0,0
20.01.2019 12:00:00 6,0 2,4 - 9 5 - - N 0,2
20.01.2019 11:00:00 5,3 4,4 - 22 12 - - WNW 0,0
20.01.2019 10:00:00 3,2 2,5 - 8 4 - - E 0,0
20.01.2019 09:00:00 3,3 2,3 4,7 2 1 - - SSE 0,4
20.01.2019 08:00:00 3,1 1,8 - 11 6 - - ESE 0,0
20.01.2019 07:00:00 3,0 1,7 - 11 6 - - E 0,0
20.01.2019 06:00:00 3,1 1,6 - 13 7 - - E 0,0
20.01.2019 05:00:00 3,2 1,7 - 13 7 - - ESE 0,0
20.01.2019 04:00:00 3,3 1,6 - 11 6 - - ESE 0,0
20.01.2019 03:00:00 3,2 1,4 - 9 5 - - SE 0,0
20.01.2019 02:00:00 3,0 1,3 - 13 7 - - E 0,0
20.01.2019 01:00:00 3,0 1,2 - 13 7 - - E 0,0
20.01.2019 00:00:00 3,1 1,1 - 16 9 - - ESE 0,0
19.01.2019 23:00:00 3,2 1,2 - 15 8 - - ESE 0,0
19.01.2019 22:00:00 3,4 1,2 - 15 8 - - E 0,0
19.01.2019 21:00:00 3,5 1,2 - 13 7 - - ESE 0,0
19.01.2019 20:00:00 3,5 1,3 - 11 6 - - ESE 0,0
19.01.2019 19:00:00 3,7 1,2 - 13 7 - - ESE 0,0
19.01.2019 18:00:00 3,5 1,0 - 13 7 - - E 0,0
19.01.2019 17:00:00 4,1 1,1 - 13 7 - - ESE 0,0
19.01.2019 16:00:00 4,7 1,8 - 9 5 - - E 0,0
19.01.2019 15:00:00 5,3 1,5 - 8 4 - - ESE 0,0
19.01.2019 14:00:00 6,0 1,6 - 15 8 - - E 0,0
19.01.2019 13:00:00 6,0 1,9 - 11 6 - - E 0,0
19.01.2019 12:00:00 5,0 2,0 - 13 7 - - ESE 0,0
19.01.2019 11:00:00 4,6 2,6 - 13 7 - - E 0,0
19.01.2019 10:00:00 3,8 2,1 - 5 3 - - E 0,0
19.01.2019 09:00:00 3,3 2,0 4,7 8 4 - - E 0,4
19.01.2019 08:00:00 3,5 1,7 - 11 6 - - ESE 0,2
19.01.2019 07:00:00 3,9 1,4 - 15 8 - - E 0,0
19.01.2019 06:00:00 4,1 1,2 - 15 8 - - E 0,0
19.01.2019 05:00:00 3,8 0,9 - 5 3 - - E 0,0
19.01.2019 04:00:00 3,9 1,0 - 11 6 - - E 0,0
19.01.2019 03:00:00 4,4 1,3 - 16 9 - - E 0,0
19.01.2019 02:00:00 4,2 1,1 - 13 7 - - NE 0,0
19.01.2019 01:00:00 4,1 1,2 - 26 14 - - E 0,0
19.01.2019 00:00:00 3,9 1,0 - 24 13 - - E 0,0
18.01.2019 23:00:00 3,3 0,9 - 9 5 - - E 0,0
18.01.2019 22:00:00 3,0 1,2 - 26 14 - - E 0,2
18.01.2019 21:00:00 2,2 0,9 - 22 12 - - E 0,2
18.01.2019 20:00:00 2,8 0,3 - 22 12 - - E 0,0
18.01.2019 19:00:00 3,3 -0,1 - 24 13 - - E 0,0
18.01.2019 18:00:00 3,6 -1,0 - 24 13 - - E 0,0
18.01.2019 17:00:00 3,4 -1,8 - 31 17 50 27 E 0,0
18.01.2019 16:00:00 3,5 -2,3 - 24 13 46 25 E 0,0
18.01.2019 15:00:00 4,0 -2,4 - 28 15 46 25 E 0,0
18.01.2019 14:00:00 4,1 -2,5 - 24 13 48 26 E 0,0
18.01.2019 13:00:00 4,0 -2,6 - 29 16 - - E 0,0
18.01.2019 12:00:00 3,5 -2,0 - 24 13 46 25 E 0,0
18.01.2019 11:00:00 3,2 -1,6 - 28 15 - - E 0,0
18.01.2019 10:00:00 2,7 -1,1 - 24 13 - - E 0,0
18.01.2019 09:00:00 2,3 -1,4 4,7 22 12 - - E 0,0
18.01.2019 08:00:00 2,3 -1,8 - 21 11 - - E 0,0
18.01.2019 07:00:00 2,0 -2,0 - 24 13 - - E 0,0
18.01.2019 06:00:00 1,9 -2,4 - 16 9 - - ESE 0,0
18.01.2019 05:00:00 1,8 -2,6 - 18 10 - - E 0,0
18.01.2019 04:00:00 1,9 -2,9 - 18 10 - - ESE 0,0
18.01.2019 03:00:00 1,8 -3,0 - 18 10 - - E 0,0
18.01.2019 02:00:00 1,6 -3,3 - 8 4 - - E 0,0
18.01.2019 01:00:00 1,6 -3,1 - 8 4 - - SE 0,0
18.01.2019 00:00:00 1,8 -2,7 - 13 7 - - SE 0,0
17.01.2019 23:00:00 1,1 -1,9 - 13 7 - - E 0,0
17.01.2019 22:00:00 1,1 -1,8 - 13 7 - - E 0,0
17.01.2019 21:00:00 1,3 -1,7 - 15 8 - - E 0,0
17.01.2019 20:00:00 0,8 -1,1 - 11 6 - - E 0,0
17.01.2019 19:00:00 1,3 -1,2 - 9 5 - - E 0,0
17.01.2019 18:00:00 1,4 -0,8 - 5 3 - - E 0,0
17.01.2019 17:00:00 1,9 -0,9 - 2 1 - - S 0,0
17.01.2019 16:00:00 2,2 -1,0 - 2 1 - - W 0,0
17.01.2019 15:00:00 2,6 -0,4 - 5 3 - - S 0,0
17.01.2019 14:00:00 5,2 -2,4 - 2 1 - - NW 0,0
17.01.2019 13:00:00 4,8 -1,2 - 5 3 - - WNW 0,0
17.01.2019 12:00:00 4,3 0,1 - 2 1 - - SSE 0,0
17.01.2019 11:00:00 1,5 -0,3 - 4 2 - - SSW 0,0
17.01.2019 10:00:00 -1,0 -2,4 - 4 2 - - SSW 0,0
17.01.2019 09:00:00 0,0 -2,5 6,0 5 3 - - S 0,0
17.01.2019 08:00:00 1,9 -0,2 - 5 3 - - ENE 0,0
17.01.2019 07:00:00 2,4 0,3 - 11 6 - - NE 0,0
17.01.2019 06:00:00 2,9 0,4 - 28 15 61 33 NW 0,0
17.01.2019 05:00:00 2,9 -1,0 - 13 7 46 25 NNW 0,0
17.01.2019 04:00:00 2,8 -2,3 - 16 9 - - NNW 0,0
17.01.2019 03:00:00 2,4 -3,5 - 11 6 - - N 0,0
17.01.2019 02:00:00 2,3 -2,1 - 13 7 - - N 0,0

tt = temperature
td = dewpoint
tt -20cm = temperature -20cm
ff = wind speed
fx = gusts
dd = wind direction
rr = precipitation

Next stations